Wind_Speed
29 36 21 33 42 39 38 37 36 34 34 33 33 32 32 30 31 31 31 31 29 27 28 27 31 35 33
24 25 30 26 28 35 37 37 36 35 37 35 34 32 31 30 30 31 33 32 32 31 32 30 28 31 35
21 23 28 27 26 29 32 33 31 29 26 28 30 29 29 28 26 26 26 27 30 31 31 32 32 29 27
23 23 29 29 26 31 30 32 31 29 27 26 25 26 28 28 26 26 27 28 27 27 27 30 29 28 26
22 18 21 21 29 30 28 31 31 31 30 30 31 30 31 31 30 28 27 27 27 27 26 27 28 28 26
27 23 26 30 35 33 30 22 8 30 29 34 32 33 34 34 32 29 27 26 27 27 27 28 29 25 25
29 27 28 34 30 27 30 24 23 17 16 24 24 29 32 33 32 30 29 28 27 26 27 27 25 24 24
39 39 38 38 37 34 32 28 23 22 21 11 21 25 26 25 26 27 24 23 25 25 24 24 23 24 24
44 40 40 35 32 27 24 20 10 14 22 17 15 18 21 21 21 23 23 23 24 23 21 21 21 22 24
41 38 37 34 29 29 28 23 12 9 19 19 17 14 5 16 24 24 24 23 24 22 21 20 18 19 23
38 37 36 33 30 29 28 29 27 17 13 22 18 21 13 4 10 18 20 20 19 18 18 17 17 19 22
29 29 31 33 33 31 31 31 29 27 23 23 14 23 19 11 8 11 14 15 15 15 15 15 16 18 21
27 30 35 35 34 31 30 30 28 27 24 22 25 21 23 15 9 12 9 12 14 14 15 16 19 21 22
31 33 31 30 30 30 30 28 26 21 20 22 25 24 21 19 14 11 13 6 10 14 14 14 15 19 25
30 27 26 28 29 30 29 29 18 22 21 19 19 19 18 17 15 16 14 13 13 10 11 13 16 19 20
27 28 29 29 29 28 27 27 24 22 24 20 18 14 10 9 12 10 13 12 11 11 11 10 14 15 16
28 28 27 27 26 25 24 22 16 18 18 17 18 12 3 3 5 11 10 8 8 8 10 11 12 8 7
Wind_Direction
219 215 217 227 230 229 233 235 238 241 244 246 248 250 255 260 261 263 262 258 259 260 258 260 254 241 241
208 212 219 226 231 229 230 234 237 243 244 242 244 248 253 255 257 261 263 261 260 262 263 263 263 262 258
205 211 214 218 220 225 229 233 237 239 236 238 242 246 248 251 255 260 263 262 260 264 264 263 260 260 264
211 207 213 216 216 220 225 229 233 234 237 241 244 246 247 250 258 263 263 263 263 265 266 262 260 262 261
213 197 199 202 211 218 224 228 234 238 240 243 244 247 250 249 253 263 262 260 261 264 265 266 265 257 254
205 204 205 211 216 216 218 219 239 241 241 246 244 247 251 252 253 263 260 260 264 263 263 263 265 252 249
204 207 211 214 214 208 217 215 222 222 213 236 247 250 255 256 253 257 258 257 257 261 263 263 257 248 248
222 224 230 230 229 232 232 230 234 239 238 226 248 252 258 257 251 253 251 249 255 259 259 257 253 247 245
223 225 226 231 236 227 214 202 208 222 224 220 241 246 248 244 246 245 246 253 254 254 252 253 249 244 245
215 223 230 232 229 226 223 195 181 201 223 206 227 231 238 246 244 240 243 245 252 252 252 256 251 241 237
208 213 219 221 213 216 219 219 209 214 212 211 211 214 214 217 235 230 238 243 245 249 251 242 242 241 240
191 193 200 209 216 220 222 227 234 243 236 225 217 213 210 208 220 230 230 233 238 243 243 237 237 245 242
184 195 210 216 217 214 216 224 229 231 228 223 223 220 218 211 204 211 217 235 239 242 237 231 227 230 232
192 205 208 210 211 213 210 212 211 207 214 216 215 220 218 220 229 222 224 218 229 231 232 230 230 233 236
194 196 205 209 207 207 210 198 193 195 194 201 208 214 222 228 224 233 232 230 235 236 233 236 235 235 238
202 205 203 202 203 199 200 200 191 191 194 190 188 182 198 216 222 219 220 227 234 235 239 245 257 254 252
197 198 200 198 191 187 190 189 180 184 190 188 184 169 139 171 187 209 211 212 220 230 247 251 263 271 273
Height
810 815 817 819 822 827 832 835 838 840 843 846 848 851 853 854 856 858 859 860 862 863 864 864 865 865 865
805 809 812 813 815 820 824 828 831 833 836 839 841 844 846 848 849 850 851 853 854 856 857 858 859 859 861
798 803 806 808 811 814 819 822 824 827 829 833 835 837 840 841 842 844 844 845 847 848 848 849 851 852 853
792 795 799 802 805 809 813 815 818 821 824 827 829 831 833 835 837 837 838 839 840 841 841 841 843 844 846
785 788 791 795 796 800 805 809 813 815 817 819 822 824 826 828 829 830 831 832 833 834 834 835 835 837 838
773 777 781 784 788 793 799 804 809 807 810 811 815 815 817 820 822 824 824 826 827 827 827 828 827 828 831
762 767 772 775 780 787 791 795 798 801 803 804 805 807 809 812 813 816 817 818 820 820 820 820 820 822 824
753 758 763 767 773 778 782 788 792 794 796 798 799 800 803 804 806 808 809 810 812 813 813 814 815 816 818
745 750 757 762 767 770 776 782 785 786 786 792 793 793 796 797 799 800 802 803 805 806 807 809 809 810 812
736 744 748 753 757 762 767 772 776 781 782 786 787 792 792 790 793 793 794 796 798 800 801 803 804 805 806
724 732 738 744 748 755 759 762 768 770 771 775 779 783 785 786 786 787 789 790 792 794 796 798 800 801 802
716 723 729 735 741 747 752 757 760 762 766 767 771 775 778 781 783 783 785 787 788 789 790 793 795 798 798
707 714 721 727 733 739 744 749 753 756 759 762 765 768 772 773 775 777 780 782 783 785 787 788 790 792 795
701 709 716 722 726 730 736 741 746 750 752 756 760 763 766 769 772 774 776 780 779 781 782 783 785 788 789
695 702 710 716 719 723 727 733 738 743 747 751 755 759 762 765 768 771 773 775 776 778 779 780 781 784 786
689 696 702 708 713 718 722 726 731 737 742 746 751 756 760 764 766 767 769 771 774 775 777 777 778 781 782
684 690 696 702 707 713 718 723 729 734 739 744 749 751 757 759 764 765 767 769 771 773 775 776 777 779 780